Weather History for Valdosta Regional, GA

Change the Weather History Date:

Saturday, November 3, 2012

  Actual Average Record
Temperature  
Mean Temperature 70 °F 63 °F  
Max Temperature 87 °F 76 °F 87 °F (2012)
Min Temperature 53 °F 51 °F 31 °F (2014)
Degree Days  
Heating Degree Days 0 4  
Month to date heating degree days 8 12  
Since 1 July heating degree days 39 55  
Cooling Degree Days 4    
Growing Degree Days 20 (Base 50)    
Moisture  
Dew Point 57 °F    
Average Humidity 65    
Maximum Humidity 93    
Minimum Humidity 37    
Precipitation  
Precipitation 0.00 in 0.09 in 0.15 in (1950)
Month to date precipitation 0.00 0.29  
Year to date precipitation 39.50 45.16  
Sea Level Pressure  
Sea Level Pressure 30.09 in    
Wind  
Wind Speed 1 mph (SSW)    
Max Wind Speed 7 mph    
Max Gust Speed 12 mph    
Visibility 5 miles    
Events Fog    
T = Trace of Precipitation, MM = Missing Value Source: NWS Daily Summary

Daily Weather History Graph

Daily Weather History Graph

Search for Another Location

Airport:

Trip Planner

Search our weather history database for the weather conditions in past years. The results will help you decide how hot, cold, wet, or windy it might be!

Date:

Astronomy

Nov. 03, 2012 Rise Set
Actual Time 7:49 AM EDT 6:42 PM EDT
Civil Twilight 7:24 AM EDT 7:07 PM EDT
Nautical Twilight 6:56 AM EDT 7:36 PM EDT
Astronomical Twilight 6:28 AM EDT 8:04 PM EDT
Moon 10:29 PM EDT (11/3) 11:46 AM EDT (11/3)
Length of Visible Light 11h 42m
Length of Day
10h 52m
Waning Gibbous, 80% of the Moon is Illuminated
Nov 3
Waning Gibbous
Nov 6
Last Quarter
Nov 13
New
Nov 20
First Quarter
Nov 28
Full

Hourly Weather History & Observations

Time (EDT) Temp. Heat Index Dew Point Humidity Pressure Visibility Wind Dir Wind Speed Gust Speed Precip Events Conditions
12:53 AM 59.0 °F - 55.0 °F 87% 30.06 in 10.0 mi Calm Calm - N/A   Clear
1:53 AM 60.1 °F - 55.9 °F 86% 30.07 in 10.0 mi Calm Calm - N/A   Clear
2:53 AM 57.9 °F - 54.0 °F 87% 30.07 in 4.0 mi Calm Calm - N/A   Clear
3:04 AM 57.2 °F - 53.6 °F 88% 30.05 in 1.8 mi Calm Calm - N/A   Clear
3:16 AM 57.2 °F - 53.6 °F 88% 30.05 in 3.0 mi Calm Calm - N/A   Clear
3:53 AM 57.0 °F - 53.1 °F 87% 30.06 in 2.0 mi Calm Calm - N/A   Clear
4:02 AM 57.2 °F - 53.6 °F 88% 30.04 in 1.0 mi Calm Calm - N/A   Mist
4:13 AM 55.4 °F - 51.8 °F 88% 30.04 in 0.8 mi Calm Calm - N/A   Mist
4:25 AM 55.4 °F - 51.8 °F 88% 30.04 in 0.2 mi Calm Calm - N/A Fog Fog
4:31 AM 55.4 °F - 51.8 °F 88% 30.04 in 1.0 mi Calm Calm - N/A   Mist
4:34 AM 55.4 °F - 51.8 °F 88% 30.04 in 2.0 mi Calm Calm - N/A   Overcast
4:46 AM 55.4 °F - 51.8 °F 88% 30.04 in 0.8 mi Calm Calm - N/A   Mist
4:53 AM 55.0 °F - 52.0 °F 89% 30.06 in 0.2 mi Calm Calm - N/A Fog Fog
5:37 AM 53.6 °F - 51.8 °F 94% 30.05 in 0.2 mi Calm Calm - N/A Fog Fog
5:53 AM 55.9 °F - 53.1 °F 90% 30.08 in 0.2 mi Calm Calm - N/A Fog Fog
6:53 AM 57.9 °F - 55.9 °F 93% 30.11 in 0.2 mi Calm Calm - N/A Fog Fog
7:53 AM 57.0 °F - 55.0 °F 93% 30.13 in 0.2 mi Calm Calm - N/A Fog Fog
8:11 AM 57.2 °F - 55.4 °F 94% 30.11 in 0.2 mi Calm Calm - N/A Fog Fog
8:53 AM 59.0 °F - 57.0 °F 93% 30.15 in 0.2 mi Calm Calm - N/A Fog Fog
9:08 AM 60.8 °F - 57.2 °F 88% 30.13 in 0.2 mi Calm Calm - N/A Fog Fog
9:24 AM 60.8 °F - 57.2 °F 88% 30.13 in 0.2 mi Calm Calm - N/A Fog Fog
9:53 AM 62.1 °F - 59.0 °F 90% 30.15 in 0.2 mi Calm Calm - N/A Fog Fog
10:18 AM 62.6 °F - 60.8 °F 94% 30.14 in 0.5 mi Calm Calm - N/A Fog Fog
10:33 AM 66.2 °F - 60.8 °F 83% 30.14 in 2.0 mi Calm Calm - N/A   Haze
10:41 AM 66.2 °F - 60.8 °F 83% 30.14 in 3.0 mi Calm Calm - N/A   Haze
10:53 AM 69.1 °F - 61.0 °F 75% 30.16 in 7.0 mi Calm Calm - N/A   Mostly Cloudy
11:36 AM 73.4 °F - 60.8 °F 65% 30.14 in 10.0 mi Calm Calm - N/A   Clear
11:53 AM 75.9 °F - 59.0 °F 56% 30.15 in 10.0 mi Calm Calm - N/A   Clear
12:53 PM 81.0 °F 81.1 °F 57.9 °F 45% 30.13 in 10.0 mi Calm Calm - N/A   Clear
1:53 PM 84.0 °F 83.8 °F 59.0 °F 43% 30.10 in 10.0 mi Variable 3.5 mph - N/A   Clear
2:53 PM 86.0 °F 84.9 °F 57.0 °F 37% 30.08 in 10.0 mi Variable 5.8 mph - N/A   Clear
3:53 PM 86.0 °F 84.9 °F 57.0 °F 37% 30.06 in 10.0 mi Calm Calm - N/A   Clear
4:53 PM 84.9 °F 84.2 °F 57.9 °F 40% 30.06 in 10.0 mi Calm Calm - N/A   Partly Cloudy
5:53 PM 81.0 °F 81.6 °F 60.1 °F 49% 30.06 in 10.0 mi Calm Calm - N/A   Clear
6:53 PM 71.1 °F - 62.1 °F 73% 30.06 in 10.0 mi Calm Calm - N/A   Clear
7:53 PM 66.9 °F - 60.1 °F 79% 30.08 in 10.0 mi South 3.5 mph - N/A   Clear
8:53 PM 71.1 °F - 61.0 °F 70% 30.09 in 10.0 mi SSW 3.5 mph - N/A   Clear
9:53 PM 71.1 °F - 62.1 °F 73% 30.09 in 10.0 mi Calm Calm - N/A   Clear
10:53 PM 66.9 °F - 61.0 °F 81% 30.10 in 10.0 mi SSW 3.5 mph - N/A   Clear
11:53 PM 66.0 °F - 61.0 °F 84% 30.10 in 9.0 mi Calm Calm - N/A   Clear